When you browse on this site, cookies collect data to enhance your experience and personalize the content and advertising you see.
Visit our Privacy Policy to learn more. By continuing to use the site, you agree to this use of cookies and data.
  • In Portugal
  • List of Countries
  • For 7 days
  • Water Temperature
  • Satellite Maps
  • Weather Map
  • Weather Widgets
  • user-avatar
    Login

    Hourly Weather Godowa

    Today, 21 February, Thursday

    Time Temperature Precipitation Wind Pressure Humidity
    00:00 +3°C° 0 mm 4 mps 746 mmHg 82%
    01:00 +3°C° 0 mm 3 mps 746 mmHg 84%
    02:00 +2°C° 0 mm 3 mps 746 mmHg 84%
    03:00 +2°C° 0 mm 3 mps 746 mmHg 83%
    04:00 +1°C° 0 mm 4 mps 746 mmHg 83%
    05:00 +1°C° 0 mm 4 mps 746 mmHg 83%
    06:00 +1°C° 0 mm 4 mps 746 mmHg 82%
    07:00 +1°C° 0 mm 4 mps 746 mmHg 81%
    08:00 +2°C° 0 mm 5 mps 746 mmHg 78%
    09:00 +3°C° 0 mm 5 mps 746 mmHg 75%
    10:00 +4°C° 0 mm 6 mps 746 mmHg 73%
    11:00 +5°C° 0 mm 6 mps 746 mmHg 69%
    12:00 +7°C° 0 mm 6 mps 746 mmHg 66%
    13:00 +7°C° 0 mm 6 mps 746 mmHg 64%
    14:00 +7°C° 0 mm 5 mps 745 mmHg 66%
    15:00 +7°C° 0 mm 5 mps 745 mmHg 69%
    16:00 +6°C° 0 mm 4 mps 744 mmHg 71%
    17:00 +6°C° 0.6 mm 4 mps 744 mmHg 76%
    18:00 +5°C° 0.6 mm 4 mps 744 mmHg 80%
    19:00 +5°C° 0.6 mm 4 mps 744 mmHg 84%
    20:00 +5°C° 0.8 mm 4 mps 744 mmHg 85%
    21:00 +3°C° 0.8 mm 5 mps 743 mmHg 87%
    22:00 +3°C° 0.8 mm 5 mps 743 mmHg 88%
    23:00 +3°C° 0.8 mm 5 mps 743 mmHg 89%

    Tomorrow, 22 February, Friday

    Time Temperature Precipitation Wind Pressure Humidity
    00:00 +3°C° 0.8 mm 5 mps 743 mmHg 90%
    01:00 +4°C° 0.8 mm 4 mps 742 mmHg 91%
    02:00 +4°C° 1 mm 4 mps 742 mmHg 92%
    03:00 +4°C° 1 mm 4 mps 742 mmHg 93%
    04:00 +4°C° 1 mm 4 mps 742 mmHg 94%
    05:00 +1°C° 1 mm 5 mps 743 mmHg 93%
    06:00 -2°C° 1 mm 7 mps 744 mmHg 91%
    07:00 -5°C° 1 mm 8 mps 745 mmHg 90%
    08:00 -5°C° 0.2 mm 8 mps 746 mmHg 84%
    09:00 -6°C° 0.2 mm 7 mps 747 mmHg 77%
    10:00 -6°C° 0.2 mm 7 mps 749 mmHg 71%
    11:00 -6°C° 0 mm 7 mps 750 mmHg 67%
    12:00 -6°C° 0 mm 7 mps 750 mmHg 62%
    13:00 -6°C° 0 mm 7 mps 751 mmHg 58%
    14:00 -6°C° 0 mm 7 mps 752 mmHg 58%
    15:00 -6°C° 0 mm 7 mps 752 mmHg 59%
    16:00 -7°C° 0 mm 7 mps 753 mmHg 59%
    17:00 -6°C° 0 mm 6 mps 754 mmHg 60%
    18:00 -7°C° 0 mm 5 mps 754 mmHg 61%
    19:00 -7°C° 0 mm 5 mps 755 mmHg 61%
    20:00 -7°C° 0 mm 5 mps 756 mmHg 60%
    21:00 -7°C° 0 mm 5 mps 756 mmHg 59%
    22:00 -7°C° 0 mm 4 mps 757 mmHg 57%
    23:00 -7°C° 0 mm 4 mps 757 mmHg 57%

    Day after tomorrow, 23 February, Saturday

    Time Temperature Precipitation Wind Pressure Humidity
    00:00 -7°C° 0 mm 4 mps 757 mmHg 57%
    01:00 -7°C° 0 mm 4 mps 758 mmHg 56%
    02:00 -7°C° 0 mm 4 mps 758 mmHg 57%
    03:00 -8°C° 0 mm 4 mps 758 mmHg 57%
    04:00 -8°C° 0 mm 5 mps 758 mmHg 58%
    05:00 -8°C° 0 mm 4 mps 758 mmHg 59%
    06:00 -8°C° 0 mm 4 mps 758 mmHg 61%
    07:00 -8°C° 0 mm 4 mps 758 mmHg 62%
    08:00 -7°C° 0 mm 4 mps 759 mmHg 59%
    09:00 -7°C° 0 mm 5 mps 759 mmHg 56%
    10:00 -6°C° 0 mm 5 mps 759 mmHg 52%
    11:00 -6°C° 0 mm 5 mps 759 mmHg 50%
    12:00 -5°C° 0 mm 5 mps 759 mmHg 47%
    13:00 -3°C° 0 mm 4 mps 759 mmHg 44%
    14:00 -4°C° 0 mm 4 mps 759 mmHg 45%
    15:00 -4°C° 0 mm 4 mps 758 mmHg 45%
    16:00 -4°C° 0 mm 4 mps 758 mmHg 46%
    17:00 -4°C° 0 mm 3 mps 758 mmHg 50%
    18:00 -4°C° 0 mm 2 mps 759 mmHg 54%
    19:00 -5°C° 0 mm 2 mps 759 mmHg 59%
    20:00 -3°C° 0 mm 1 mps 759 mmHg 59%
    21:00 -3°C° 0 mm 1 mps 759 mmHg 60%
    22:00 -3°C° 0 mm 1 mps 759 mmHg 61%
    23:00 -3°C° 0 mm 1 mps 759 mmHg 61%

    24 February, Sunday

    Time Temperature Precipitation Wind Pressure Humidity
    00:00 -3°C° 0 mm 1 mps 759 mmHg 61%
    01:00 -3°C° 0 mm 1 mps 759 mmHg 61%
    02:00 -3°C° 0 mm 1 mps 758 mmHg 61%
    03:00 -3°C° 0 mm 1 mps 758 mmHg 60%
    04:00 -3°C° 0 mm 1 mps 758 mmHg 59%
    05:00 -3°C° 0 mm 1 mps 758 mmHg 58%
    06:00 -3°C° 0 mm 1 mps 758 mmHg 56%
    07:00 -2°C° 0 mm 1 mps 758 mmHg 55%
    08:00 -1°C° 0 mm 1 mps 757 mmHg 49%
    09:00 0°C° 0 mm 1 mps 757 mmHg 43%
    10:00 +1°C° 0 mm 1 mps 757 mmHg 36%
    11:00 -1°C° 0 mm 2 mps 757 mmHg 36%
    12:00 +1°C° 0 mm 2 mps 757 mmHg 35%
    13:00 +2°C° 0 mm 2 mps 756 mmHg 35%
    14:00 +2°C° 0 mm 2 mps 756 mmHg 40%
    15:00 +1°C° 0 mm 2 mps 756 mmHg 46%
    16:00 +1°C° 0 mm 2 mps 756 mmHg 51%
    17:00 -1°C° 0 mm 2 mps 756 mmHg 57%
    18:00 0°C° 0 mm 1 mps 756 mmHg 62%
    19:00 0°C° 0 mm 1 mps 756 mmHg 68%
    20:00 0°C° 0 mm 1 mps 756 mmHg 69%
    21:00 0°C° 0 mm 1 mps 756 mmHg 70%
    22:00 0°C° 0 mm 1 mps 757 mmHg 71%
    23:00 -2°C° 0 mm 2 mps 757 mmHg 71%

    25 February, Monday

    Time Temperature Precipitation Wind Pressure Humidity
    00:00 -2°C° 0 mm 2 mps 757 mmHg 71%
    01:00 -2°C° 0 mm 2 mps 757 mmHg 71%
    02:00 -2°C° 0 mm 2 mps 757 mmHg 70%
    03:00 -2°C° 0 mm 2 mps 756 mmHg 69%
    04:00 -2°C° 0 mm 2 mps 756 mmHg 69%
    05:00 -2°C° 0 mm 3 mps 756 mmHg 68%
    06:00 -1°C° 0 mm 3 mps 756 mmHg 68%
    07:00 -1°C° 0 mm 3 mps 756 mmHg 67%
    08:00 -1°C° 0 mm 4 mps 756 mmHg 64%
    09:00 0°C° 0 mm 4 mps 756 mmHg 61%
    10:00 +2°C° 0 mm 5 mps 756 mmHg 57%
    11:00 +3°C° 0 mm 5 mps 756 mmHg 58%
    12:00 +3°C° 0 mm 5 mps 756 mmHg 59%
    13:00 +5°C° 0 mm 5 mps 755 mmHg 60%
    14:00 +5°C° 0 mm 4 mps 755 mmHg 66%
    15:00 +4°C° 0 mm 3 mps 755 mmHg 71%
    16:00 +3°C° 0 mm 3 mps 755 mmHg 77%
    17:00 +3°C° 0 mm 3 mps 755 mmHg 81%
    18:00 +3°C° 0 mm 2 mps 755 mmHg 85%
    19:00 +2°C° 0 mm 2 mps 755 mmHg 90%
    20:00 +2°C° 0 mm 2 mps 754 mmHg 91%
    21:00 +2°C° 0 mm 2 mps 754 mmHg 92%
    22:00 +2°C° 0 mm 2 mps 754 mmHg 93%
    23:00 +1°C° 0 mm 2 mps 754 mmHg 93%

    26 February, Tuesday

    Time Temperature Precipitation Wind Pressure Humidity
    00:00 0°C° 0 mm 3 mps 753 mmHg 94%
    01:00 0°C° 0 mm 3 mps 753 mmHg 94%
    02:00 0°C° 0 mm 3 mps 752 mmHg 94%
    03:00 -1°C° 0 mm 4 mps 752 mmHg 94%
    04:00 -1°C° 0 mm 4 mps 751 mmHg 94%
    05:00 -1°C° 0 mm 4 mps 751 mmHg 93%
    06:00 -1°C° 0 mm 4 mps 750 mmHg 92%
    07:00 -1°C° 0 mm 5 mps 750 mmHg 91%
    08:00 +1°C° 0 mm 5 mps 749 mmHg 86%
    09:00 +2°C° 0 mm 6 mps 749 mmHg 81%
    10:00 +3°C° 0 mm 6 mps 749 mmHg 77%
    11:00 +4°C° 0 mm 6 mps 748 mmHg 73%
    12:00 +5°C° 0 mm 6 mps 747 mmHg 69%
    13:00 +7°C° 0 mm 6 mps 747 mmHg 65%
    14:00 +7°C° 0 mm 6 mps 747 mmHg 67%
    15:00 +7°C° 0 mm 5 mps 746 mmHg 68%
    16:00 +6°C° 0 mm 4 mps 746 mmHg 70%
    17:00 +5°C° 0 mm 4 mps 746 mmHg 75%
    18:00 +5°C° 0 mm 4 mps 746 mmHg 80%
    19:00 +4°C° 0 mm 4 mps 746 mmHg 84%
    20:00 +3°C° 0 mm 4 mps 746 mmHg 87%
    21:00 +3°C° 0 mm 4 mps 745 mmHg 89%
    22:00 +2°C° 0 mm 5 mps 745 mmHg 91%
    23:00 +2°C° 0 mm 5 mps 745 mmHg 92%
    Show more